Zurück zum Katalog

STARLINK-34748

AktivKommunikationSSO
NORAD 64848·PAYLOAD·🇺🇸 United States

Gestartet Jul 19, 2025 von Vandenberg Space Force Base

Loading…

Nächste Überflüge (nächste 24 Stunden)

TLE

AktuellSource: CelesTrak SupGP

Epoche: Sep 15, 2026, 03:09 UTC

1 64848C 25152G   26258.13173611 -.00018166  00000+0 -56378-3 0  2584
2 64848  97.2842 108.7511 0001994  93.9144 143.3800 15.33454239    19

Verfolge STARLINK-34748 in Echtzeit mit AllMySat

Download on the App Store